Flag for USA

Past Weather in New Orleans, Louisiana, USA — March 2020

Now
79 °F

Partly sunny.


Feels Like: 82 °F
Forecast: 81 / 71 °F
Wind: 10 mph from Northwest

Location: New Orleans Naval Air Station
Current Time: Sep 24, 2020 at 2:29:09 pm
Latest Report: Sep 24, 2020 at 1:02 pm
Visibility: 10 mi
Pressure29.86 "Hg
Humidity: 79%
Dew Point: 72 °F
Location of New OrleansLocation

March 2020 Weather in New Orleans — Graph

°F

High & Low Weather Summary for March 2020

 TemperatureHumidityPressure
High85 °F (Mar 25, 1:55 pm)100% (Mar 1, 12:55 am)30.47 "Hg (Mar 1, 12:55 am)
Low42 °F (Mar 1, 3:55 am)22% (Mar 6, 3:55 pm)29.78 "Hg (Mar 4, 4:55 am)
Average70 °F84%30.10 "Hg
* Reported Mar 1 12:55 am — Mar 31 11:55 pm, New Orleans. Weather by CustomWeather, © 2020

Note: Actual official high and low records may vary slightly from our data, if they occured in-between our weather recording intervals... More about our weather records

New Orleans Weather History for March 1, 2020

Scroll right to see more
 ConditionsComfort  
Time TempWeatherWind HumidityBarometerVisibility
12:55 am
Sun, Mar 1
45 °FClear.No wind100%30.24 "Hg10 mi
1:55 am44 °FClear.No wind96%30.22 "Hg10 mi
3:55 am42 °FFog.No wind96%30.20 "Hg1 mi
6:55 am44 °FSunny.No wind96%30.21 "Hg10 mi
7:55 am52 °FPartly sunny.No wind97%30.22 "Hg10 mi
9:55 am65 °FBroken clouds.10 mph59%30.23 "Hg10 mi
10:55 am67 °FBroken clouds.13 mph57%30.23 "Hg10 mi
11:55 am68 °FBroken clouds.17 mph55%30.21 "Hg10 mi
12:55 pm68 °FPartly sunny.17 mph57%30.17 "Hg10 mi
2:55 pm68 °FBroken clouds.16 mph61%30.13 "Hg10 mi
3:55 pm67 °FPartly sunny.10 mph66%30.12 "Hg10 mi
4:55 pm65 °FPartly sunny.10 mph70%30.10 "Hg10 mi
6:55 pm62 °FPassing clouds.8 mph80%30.09 "Hg10 mi
7:55 pm62 °FPartly cloudy.10 mph83%30.09 "Hg10 mi
8:55 pm62 °FMostly cloudy.7 mph83%30.09 "Hg10 mi
9:55 pm64 °FOvercast.14 mph84%30.08 "Hg10 mi
10:55 pm64 °FOvercast.16 mph84%30.06 "Hg10 mi
11:55 pm64 °FOvercast.15 mph84%30.04 "Hg10 mi
Weather by CustomWeather, © 2020

See weather overview